Погода в Нововоронцовке

Украина / Херсонская область     47°30′17″N   33°55′23″E
темп.,
°C
ветер,
м/с
пор.,
м/с
влажн.,
%
обл.,
%
осадки,
мм/ч
давл.,
гПа
погр.,
м
17 июня, чт
чт1700:00+20с6866100 0.0 1011229
03:00+19с71079100 0.1 1011303
06:00+18ссв5691100 4.3 1011336
09:00+19ссв101491100 32.1 1011872
12:00+23всв121580100 0.3 10111038
15:00+23всв11137696 0.9 10121184
18:00+22всв121485100 2.7 10121018
21:00+22всв91181100 4.9 1013719
18 июня, пт
пт1800:00+21в6885100 1.0 1013572
03:00+20в788435 2.4 1013595
06:00+20в9118153 0.4 1014837
09:00+21в91075100 0.4 10161069
12:00+24в9106035 0.1 10161694
15:00+25в8105664 0.1 10161826
18:00+24вюв7865100 0.6 1016815
21:00+22всв89776 2.6 1018622
19 июня, сб
сб1900:00+21в8983100 1.4 1018480
03:00+21в568347 2.0 1017360
06:00+20всв67846 0.1 1018466
09:00+21всв667911 0.1 1018646
12:00+23в66670 0.0 1017889
15:00+25в57650 0.0 1016746
18:00+27в786399 0.1 1015919
21:00+25в91170100 1.3 1015651
20 июня, вс
вс2000:00+23всв81173100 0.9 1015528
03:00+21св91178100 1.3 1014512
06:00+20всв81273100 0.1 1014525
09:00+22всв101261100 1.1 1014810
12:00+24в91157100 0.0 10141137
15:00+26в8105339 0.0 10131182
18:00+26вюв910560 0.0 10121055
21:00+25в69640 0.0 1012571
21 июня, пн
пн2100:00+24в68742 0.0 1011364
03:00+22св568178 0.0 1011248
06:00+22всв5678100 0.0 1011284
09:00+24в7768100 0.0 1011579
12:00+26в5563100 0.0 1011766
15:00+27всв785872 0.0 1011735
18:00+27в81256100 0.1 1011923
21:00+26в696583 0.2 1010467